Lafayette, LA

3:32 AM CST on December 14, 2017 (GMT -0600)
Lafayette Regional

Weather History for KLFT - May, 2012

Change the Weather History Date:

Tuesday, May 29, 2012

  Actual Average Record
Temperature  
Mean Temperature 83 °F 79 °F  
Max Temperature 92 °F 89 °F 98 °F (1896)
Min Temperature 73 °F 70 °F 54 °F (1934)
Cooling Degree Days 18 14  
Month to date cooling degree days 370 331  
Year to date cooling degree days 812 585  
Growing Degree Days 32 (Base 50)    
Moisture  
Dew Point 68 °F    
Average Humidity 64    
Maximum Humidity 87    
Minimum Humidity 41    
Precipitation  
Precipitation 0.00 in 0.18 in 2.42 in (1949)
Month to date precipitation 1.72 4.43  
Year to date precipitation 24.05 22.27  
Sea Level Pressure  
Sea Level Pressure 29.91 in    
Wind  
Wind Speed 7 mph (WSW)    
Max Wind Speed 16 mph    
Max Gust Speed 23 mph    
Visibility 10 miles    
Events      
T = Trace of Precipitation, MM = Missing Value Source: NWS Daily Summary

Daily Weather History Graph

Daily Weather History Graph

Search for Another Location

Airport or City:

Trip Planner

Search our weather history database for the weather conditions in past years. The results will help you decide how hot, cold, wet, or windy it might be!

Date:

Astronomy

May. 29, 2012 Rise Set
Actual Time 6:07 AM CDT 8:03 PM CDT
Civil Twilight 5:40 AM CDT 8:30 PM CDT
Nautical Twilight 5:07 AM CDT 9:03 PM CDT
Astronomical Twilight 4:33 AM CDT 9:38 PM CDT
Moon 1:58 PM CDT (5/29) 1:34 AM CDT (5/29)
Length of Visible Light 14h 50m
Length of Day
13h 56m
First Quarter, 59% of the Moon is Illuminated
May 29
First Quarter
Jun 4
Full
Jun 11
Last Quarter
Jun 19
New
Jun 26
First Quarter

Hourly Weather History & Observations

Time (CDT) Temp. Heat Index Dew Point Humidity Pressure Visibility Wind Dir Wind Speed Gust Speed Precip Events Conditions
12:53 AM 77.0 °F - 68.0 °F 74% 29.92 in 10.0 mi West 5.8 mph - N/A   Clear
1:53 AM 75.0 °F - 69.1 °F 82% 29.91 in 10.0 mi West 5.8 mph - N/A   Clear
2:53 AM 75.0 °F - 69.1 °F 82% 29.91 in 10.0 mi West 4.6 mph - N/A   Clear
3:53 AM 75.0 °F - 70.0 °F 84% 29.91 in 10.0 mi West 4.6 mph - N/A   Clear
4:53 AM 75.0 °F - 69.1 °F 82% 29.92 in 10.0 mi West 3.5 mph - N/A   Clear
5:53 AM 75.0 °F - 69.1 °F 82% 29.92 in 10.0 mi West 3.5 mph - N/A   Clear
6:53 AM 73.9 °F - 69.1 °F 85% 29.93 in 10.0 mi Calm Calm - N/A   Clear
7:53 AM 78.1 °F - 70.0 °F 76% 29.94 in 10.0 mi WSW 4.6 mph - N/A   Clear
8:53 AM 81.0 °F 84.4 °F 70.0 °F 69% 29.94 in 10.0 mi West 6.9 mph - N/A   Clear
9:53 AM 82.9 °F 85.8 °F 68.0 °F 60% 29.94 in 10.0 mi West 8.1 mph - N/A   Clear
10:53 AM 86.0 °F 88.2 °F 66.0 °F 51% 29.94 in 10.0 mi SSW 9.2 mph - N/A   Scattered Clouds
11:53 AM 88.0 °F 91.4 °F 68.0 °F 51% 29.94 in 10.0 mi West 8.1 mph - N/A   Scattered Clouds
12:53 PM 89.1 °F 91.0 °F 64.9 °F 45% 29.94 in 10.0 mi WSW 12.7 mph - N/A   Scattered Clouds
1:53 PM 89.1 °F 91.0 °F 64.9 °F 45% 29.92 in 10.0 mi West 6.9 mph - N/A   Scattered Clouds
2:53 PM 91.9 °F 94.1 °F 64.9 °F 41% 29.90 in 10.0 mi West 11.5 mph - N/A   Partly Cloudy
3:53 PM 91.0 °F 92.6 °F 64.0 °F 41% 29.88 in 10.0 mi WSW 10.4 mph - N/A   Scattered Clouds
4:53 PM 90.0 °F 91.7 °F 64.9 °F 43% 29.87 in 10.0 mi SW 9.2 mph 17.3 mph N/A   Partly Cloudy
5:53 PM 90.0 °F 92.8 °F 66.9 °F 46% 29.86 in 10.0 mi SW 10.4 mph - N/A   Clear
6:53 PM 88.0 °F 91.4 °F 68.0 °F 51% 29.86 in 10.0 mi West 10.4 mph - N/A   Clear
7:53 PM 84.9 °F 88.8 °F 69.1 °F 59% 29.86 in 10.0 mi WSW 6.9 mph - N/A   Clear
8:53 PM 82.0 °F 85.9 °F 70.0 °F 67% 29.87 in 10.0 mi SW 10.4 mph - N/A   Clear
9:53 PM 80.1 °F 83.6 °F 71.1 °F 74% 29.88 in 10.0 mi SW 6.9 mph - N/A   Clear
10:53 PM 79.0 °F - 72.0 °F 79% 29.90 in 10.0 mi SW 8.1 mph - N/A   Clear
11:53 PM 78.1 °F - 73.0 °F 84% 29.90 in 10.0 mi SSW 6.9 mph - N/A   Clear